Weather in Berdianka

Ukraine / Kharkiv Region     49°06′11″N   35°27′01″E
temp.,
°C
wind,
m/s
gust,
m/s
humid.,
%
clouds,
%
prec.,
mm/h
press.,
hPa
HPBL,
m
15 april, thu
thu1500:00+8s36865 0.0 1015102
03:00+7sse368699 0.0 1015129
06:00+6se3687100 0.0 1014149
09:00+8sse4683100 0.0 1014523
12:00+11s5676100 0.1 1013857
15:00+9sse3692100 1.9 1013416
18:00+9ese118236 4.3 101391
21:00+9sse3682100 4.3 1013169
16 april, fri
fri1600:00+8s5986100 0.1 1013666
03:00+7s6991100 0.3 1013690
06:00+7s5991100 0.0 1014512
09:00+8s688697 0.1 1015590
12:00+11s787199 0.6 10161048
15:00+11sw6765100 1.5 10161162
18:00+10ssw6768100 1.3 10161272
21:00+7se2387100 4.0 1017141
17 april, sat
sat1700:00+6w4788100 1.1 1018289
03:00+4wsw369111 1.1 1019183
06:00+4wsw228969 0.0 102052
09:00+6w3480100 0.1 1021354
12:00+8w3467100 0.1 10211017
15:00+10w4560100 0.1 10211467
18:00+9w2463100 0.1 1021974
21:00+7ssw337526 0.1 102241
18 april, sun
sun1800:00+6ssw3580100 0.0 1021125
03:00+5s358431 0.1 102183
06:00+6sw2483100 0.0 1020107
09:00+7sw3575100 0.0 1020291
12:00+11w336340 0.0 1020989
15:00+13wnw335281 0.2 10191440
18:00+11n3563100 0.1 1019211
21:00+10ene236891 0.1 101958
19 april, mon
mon1900:00+9e237198 0.0 101950
03:00+8ene236792 0.0 101964
06:00+8ene3471100 0.0 1019118
09:00+11ene3458100 0.0 1019508
12:00+14ene3349100 0.0 10181732
15:00+15ene4544100 0.1 10161815
18:00+14ene4748100 0.0 1015876
21:00+11ene41162100 0.0 1013294